Lid_Strength_Index
15 16 16 16 16 16 16 17 15 14 14 14 13 13 12 13 12 12 12 12 12 12
15 16 16 16 16 17 16 15 14 15 15 14 13 13 13 13 12 12 12 12 12 12
15 16 16 16 16 16 16 15 15 15 15 14 14 13 13 13 12 13 12 12 12 11
16 16 16 16 16 16 15 15 15 15 15 14 14 13 12 12 12 12 12 11 12 12
15 16 16 16 16 16 16 16 16 15 14 14 13 14 13 12 12 12 12 12 12 12
16 17 19 20 21 18 19 20 18 15 15 15 16 15 13 12 12 12 13 13 13 12
17 18 20 21 23 22 20 20 20 18 19 18 17 14 13 13 13 13 13 13 12 12
19 20 21 24 25 23 16 21 22 21 21 21 17 13 13 12 13 15 15 15 13 12
20 22 22 26 27 26 24 24 24 23 23 22 16 13 12 12 16 16 16 16 14 13
21 22 23 25 28 24 24 25 24 25 24 23 21 14 12 12 16 16 17 16 14 14
21 21 23 26 25 27 26 25 24 24 25 25 21 15 13 12 20 20 21 18 16 15
20 21 23 24 24 27 25 23 23 23 24 22 23 16 14 14 20 19 20 19 19 15
20 20 21 22 24 27 25 21 19 20 23 22 22 17 14 14 17 21 20 22 20 15
20 19 20 22 23 23 23 21 23 21 22 22 22 22 15 13 18 20 20 19 20 18